User: anonymous   Login
Location: Gradaro
(45.0833°N, 10.8833°E)
Time: 10:53:28
(UTC+00:00)
Language:

SJ 16-02 - Orbit

View from above orbital plane
View from above orbital plane
View from above satellite
View from above satellite

Ground track
Ground track

The orbit data is extracted from the following two-line orbital elements,

1 41634U 16043A   21064.07535889  .00000265  00000-0  33564-4 0  9998
2 41634  75.0042 305.3834 0006643  27.5329 332.6215 14.85775348253948
Epoch (UTC): 05 March 2021 01:48:31
Eccentricity: 0.0006643
inclination: 75.0042°
perigee height: 606 km
apogee height: 616 km
right ascension of ascending node: 305.3834°
argument of perigee: 27.5329°
revolutions per day: 14.85775348
mean anomaly at epoch: 332.6215°
orbit number at epoch: 25394

The dashed part of the orbit path shows where the satellite is in the earth's shadow,  

DLR